{"data":{"norad_id":63232,"intl_designator":"2025-052Y","name":"SPHINX/FRAZIER","alt_names":[],"object_type":"PAYLOAD","status":"ACTIVE","operator":null,"country":"US","launch_date":"2025-03-15","launch_site_code":"AFWTR","launch_vehicle":null,"mission":null,"orbit_class":"UNKNOWN","rcs_meters":null,"size_class":null,"mass_kg":null,"dimensions":null,"purposes":[],"wikipedia_slug":null,"has_3d_model":false,"image_url":null,"decayed_at":null,"tle_current":{"epoch":"2026-05-25T03:37:22.218240Z","epoch_age_seconds":68780,"freshness":"FRESH","line1":"1 63232U 25052Y   26145.15095160  .00005558  00000+0  23486-3 0  9993","line2":"2 63232  97.3979  38.4765 0004511 215.3620 144.7319 15.23637287 66369","mean_motion":15.23637287,"eccentricity":0.0004511,"inclination_deg":97.3979,"raan_deg":38.4765,"arg_perigee_deg":215.362,"mean_anomaly_deg":144.7319,"bstar":0.00023486,"rev_number":6636,"period_min":94.510682580847,"perigee_km":491.78003008197,"apogee_km":497.98086642378,"semimajor_km":6873.0174482529,"source":"CELESTRAK","updated_at":"2026-05-25T13:38:03.581202Z"}}}